Flag for Canada Weather past 2 weeks in Cambridge, Ontario, Canada

57 °F


Feels Like: 54 °F
Forecast: N/A
Wind: 13 mph from East

Location: Waterloo Well

Current Time: Oct 8, 2015 at 7:01:10 PM

Latest Report: Oct 8, 2015 at 6:00 PM

Visibility: 9 mi

Pressure: 30.03 "Hg

Humidity: 77%

Dew point: 50 °F

Location of CambridgeLocation

Historic Weather in Cambridge — Graph


Cambridge temperature yesterday

Maximum temperature yesterday: 68 °F (at 3:00 PM)
Minimum temperature yesterday: 46 °F (at 11:00 PM)
Average temperature yesterday: 55 °F

Past Weeks' High & Low Weather Summary

High77 °F (Sep 23, 5:00 PM)100% (Sep 24, 2:01 AM)30.46 "Hg (Sep 24, 2:01 AM)
Low36 °F (Oct 8, 4:56 AM)30% (Sep 23, 5:00 PM)29.92 "Hg (Sep 29, 2:04 PM)
Average55 °F80%30.23 "Hg
* Reported Sep 23 5:00 PM — Oct 8 5:00 PM, Cambridge, Weather by CustomWeather, © 2015

Note: Actual official high and low records may vary slightly from our data, if they occured in-between our weather recording intervals... More about our weather records


Cambridge weather history for previous 24 hours

Time TempWeatherWind HumidityBarometerVisibility
5:00 PM
Thu, Oct 8
57 °FPartly sunny.10 mph72%30.05 "Hg9 mi
4:00 PM63 °FBroken clouds.9 mph59%30.05 "Hg9 mi
3:00 PM61 °FScattered clouds.8 mph59%30.07 "Hg9 mi
2:00 PM63 °FScattered clouds.6 mph56%30.09 "Hg9 mi
1:00 PM59 °FPassing clouds.7 mph59%30.13 "Hg9 mi
12:00 PM59 °FScattered clouds.10 mph59%30.15 "Hg9 mi
11:00 AM55 °FSunny.13 mph72%30.16 "Hg9 mi
10:00 AM52 °FSunny.8 mph82%30.17 "Hg9 mi
9:00 AM45 °FSunny.5 mph100%30.18 "Hg9 mi
8:00 AM37 °FClear.No wind100%30.18 "Hg9 mi
7:04 AM36 °FFog.3 mph100%30.18 "Hg6 mi
7:01 AM36 °FFog.3 mph100%30.18 "Hg3 mi
6:02 AM36 °FLight rain. Fog.No wind100%30.16 "Hg3 mi
5:00 AM36 °FLight rain. Fog.2 mph100%30.16 "Hg1 mi
4:56 AM36 °FLight rain. Fog.2 mph100%30.16 "Hg1 mi
4:00 AM39 °FLight rain. Fog.2 mph100%30.14 "Hg1 mi
3:56 AM39 °FLight rain. Fog.2 mph100%30.15 "Hg1 mi
3:00 AM37 °FFog.2 mph100%30.16 "Hg0 mi
2:57 AM37 °FFog.2 mph100%30.16 "Hg0 mi
2:03 AM41 °FFog.2 mph100%30.16 "Hg1 mi
2:00 AM41 °FFog.2 mph100%30.16 "Hg6 mi
1:02 AM43 °FLight rain. Fog.2 mph93%30.16 "Hg1 mi
12:00 AM45 °FClear.3 mph100%30.16 "Hg9 mi
11:00 PM
Wed, Oct 7
46 °FClear.6 mph93%30.16 "Hg9 mi
10:00 PM48 °FClear.8 mph87%30.15 "Hg9 mi
9:00 PM52 °FClear.7 mph77%30.14 "Hg9 mi
8:00 PM54 °FClear.7 mph82%30.12 "Hg9 mi
7:00 PM57 °FSunny.9 mph72%30.09 "Hg9 mi
Weather by CustomWeather, © 2015

See weather overviewHow to use our weather pages